[[{"header":{"parameterUnit":"m.s-1","parameterCategory":1,"la1":30.2991,"la2":30.254,"lo1":-89.0895,"lo2":-89.0444,"dy":0.0017,"dx":0.0017,"nx":28,"ny":28,"refTime":"2024-08-16T21:00:00:Z","depth":0,"parameterNumber":2,"parameterNumberName":"U-component_of_WINDS"},"data":[0,0,0,0,0,0,0,0,0,0,0,0,0,0,0,0,0,0,0,0,0,0,0,0,0,0,0,0,0,0,0,0,0,0,0,0,0,0,0,0,0,0,0,0,0,0,0,0,0,0,0,0,0,0,0,0,0,0,0.4336,0.4337,0,0.4504,0.4506,0.4508,0.4613,0.4614,0.4614,0.4615,0.479,0.4794,0.4798,0,0,0,0,0,0,0,0,0,0,0,0,0,0.4106,0.411,0.4335,0.4337,0.434,0.4504,0.4506,0.4508,0.4613,0.4614,0.4614,0.4615,0.4789,0.4794,0.4799,0,0,0,0,0,0,0,0,0,0,0,0,0,0.4233,0.4111,0.4335,0.4411,0.442,0.4503,0.4506,0.4509,0.4613,0.4614,0.4615,0.4615,0.4787,0.4793,0.4799,0.4821,0,0,0.4818,0.4821,0,0,0,0,0,0,0,0,0.4226,0.4242,0.4398,0.4406,0.4416,0.4538,0.449,0.4614,0.4613,0.454,0.4615,0.4616,0.4706,0.4719,0.4749,0.4829,0.4836,0.4819,0.4823,0.4825,0.4827,0,0,0,0,0,0,0,0.4217,0.4235,0.4402,0.44,0.4411,0.4438,0.4457,0.4514,0.4616,0.4546,0.4554,0.4573,0.4711,0.4743,0.4754,0.4839,0.4819,0.4824,0.4828,0.4831,0.4946,0.4945,0,0,0,0,0,0,0.4196,0.4227,0.4397,0.4407,0.4321,0.4442,0.4463,0.4498,0.4616,0.4634,0.4572,0.4577,0.4732,0.4746,0.476,0.4793,0.4825,0.4831,0.4835,0.4946,0.4945,0.4945,0,0,0,0,0,0,0.4191,0.421,0.439,0.4319,0.4344,0.4445,0.4484,0.4501,0.4533,0.4635,0.4654,0.4585,0.4733,0.4752,0.4805,0.4801,0.4834,0.484,0.4947,0.4946,0.4945,0.4859,0,0,0,0,0,0,0.4184,0.4207,0.4216,0.4319,0.4348,0.4431,0.4483,0.4504,0.4543,0.4551,0.4652,0.467,0.4735,0.4795,0.4811,0.481,0.4845,0.4948,0.4947,0.4945,0.4862,0.4855,0.4849,0,0,0,0,0,0.4175,0.4186,0.4216,0.4236,0.436,0.443,0.4447,0.4521,0.4542,0.4552,0.4618,0.4667,0.4798,0.4799,0.4818,0.4819,0.4948,0.4947,0.4945,0.4866,0.4856,0.4849,0,0,0,0,0,0,0.4081,0.42,0.4235,0.4279,0.4344,0.4448,0.4463,0.4508,0.4569,0.4574,0.4664,0.4686,0.473,0.478,0.4779,0.4846,0.4879,0.4881,0.4812,0.4804,0.4797,0.4785,0.485,0,0,0,0,0,0.4065,0.4111,0.4213,0.4242,0.4272,0.4361,0.4395,0.4446,0.4516,0.4545,0.4614,0.4682,0.4739,0.4774,0.4832,0.487,0.4894,0.488,0.4873,0.4867,0.4868,0.4892,0.4887,0.494,0.494,0.494,0,0,0.4033,0.4104,0.4128,0.4225,0.4281,0.4327,0.4384,0.4431,0.4466,0.4552,0.4607,0.466,0.4741,0.4787,0.481,0.483,0.4858,0.4865,0.4859,0.4864,0.489,0.4885,0.488,0.4939,0.4939,0.4939,0,0,0.3999,0.4056,0.4087,0.4142,0.4225,0.4284,0.4291,0.4389,0.4427,0.4483,0.4548,0.4592,0.4688,0.4743,0.4784,0.4769,0.4817,0.4786,0.475,0.4772,0.4768,0.4765,0.476,0.4758,0.4786,0.4786,0.4786,0,0.3949,0.402,0.4097,0.414,0.4181,0.426,0.4292,0.4341,0.444,0.4467,0.4486,0.4608,0.4668,0.4728,0.4724,0.4755,0.4766,0.4775,0.4762,0.476,0.4758,0.4755,0.4753,0.4782,0.4782,0.4783,0.4783,0,0.3955,0.4004,0.4019,0.4111,0.4153,0.419,0.4274,0.4308,0.4355,0.4412,0.4468,0.4543,0.4617,0.4635,0.4682,0.4702,0.4711,0.4745,0.478,0.4747,0.4746,0.4745,0.4775,0.4777,0.4778,0.4779,0,0,0.3867,0.4,0.4005,0.4047,0.4145,0.4185,0.4225,0.4297,0.4325,0.439,0.4427,0.4505,0.4538,0.4584,0.4637,0.4657,0.4641,0.469,0.4693,0.4678,0.4669,0.4643,0.464,0.4673,0.4673,0.4673,0.4662,0,0.3848,0.3924,0.3995,0.4046,0.4092,0.4167,0.4203,0.4267,0.4321,0.4369,0.443,0.4484,0.4522,0.455,0.4573,0.4638,0.4641,0.464,0.471,0.4711,0.4687,0.4639,0.4612,0.4598,0.4662,0.4662,0.4662,0,0.3836,0.3897,0.3952,0.4045,0.4067,0.4098,0.4169,0.4214,0.4288,0.4326,0.4377,0.4433,0.448,0.4509,0.4576,0.4574,0.4607,0.4643,0.4644,0.4654,0.4685,0.4648,0.4595,0.4593,0.4662,0.4662,0.4662,0,0.3767,0.3862,0.3908,0.3942,0.4052,0.4072,0.4118,0.4193,0.4232,0.4295,0.4321,0.4388,0.4425,0.4476,0.4549,0.4564,0.4609,0.4644,0.4643,0.4641,0.465,0.4648,0.4601,0.4669,0.4669,0.4669,0.4669,0,0.3739,0.377,0.3879,0.3907,0.3944,0.4025,0.406,0.4113,0.4179,0.422,0.4289,0.4325,0.4419,0.4467,0.4525,0.4572,0.4588,0.4621,0.4636,0.4615,0.4611,0.4638,0.4641,0.4669,0.4669,0.4669,0.4669,0,0.3668,0.3742,0.3797,0.3896,0.3921,0.3944,0.4029,0.406,0.4118,0.4168,0.4184,0.4275,0.4335,0.4413,0.4498,0.4537,0.4577,0.46,0.4552,0.4561,0.4555,0.4555,0.4525,0.4525,0.4591,0.459,0.4589,0,0.3646,0.3671,0.3772,0.3804,0.3848,0.3898,0.3937,0.4017,0.4056,0.4142,0.4162,0.4227,0.4284,0.4377,0.4451,0.4516,0.4542,0.4526,0.4552,0.453,0.4542,0.454,0.4543,0.452,0.4519,0.4518,0.4517,0,0.3598,0.3633,0.3687,0.3753,0.3798,0.3854,0.3914,0.3936,0.4029,0.4068,0.413,0.4174,0.426,0.4324,0.4399,0.4448,0.4498,0.4508,0.4512,0.4491,0.4462,0.4479,0.4535,0.4509,0.451,0.4511,0.4511,0.4511,0.3552,0.3578,0.3653,0.3711,0.3763,0.3817,0.3851,0.3912,0.3965,0.404,0.4085,0.4145,0.4219,0.4324,0.4371,0.442,0.4439,0.4444,0.4445,0.4445,0.4439,0.4453,0.4434,0.4434,0.4434,0.4435,0.4435,0,0.3508,0.356,0.3612,0.3692,0.3738,0.378,0.3848,0.3883,0.3935,0.3999,0.4053,0.4124,0.4186,0.4264,0.4332,0.4356,0.4381,0.4371,0.4371,0.4382,0.4417,0.4408,0.435,0.435,0.435,0.435,0.435,0.435,0.3491,0.3538,0.3581,0.3655,0.3707,0.3766,0.3801,0.3852,0.3903,0.3979,0.4031,0.4081,0.4151,0.4224,0.4284,0.4305,0.4327,0.4311,0.4339,0.4371,0.4379,0.4386,0.4378,0.4315,0.4315,0.43,0.43,0.4299]},{"header":{"parameterUnit":"m.s-1","parameterCategory":1,"la1":30.2991,"la2":30.254,"lo1":-89.0895,"lo2":-89.0444,"dy":0.0017,"dx":0.0017,"nx":28,"ny":28,"refTime":"2024-08-16T21:00:00:Z","depth":0,"parameterNumber":3,"parameterNumberName":"V-component_of_WINDS"},"data":[0,0,0,0,0,0,0,0,0,0,0,0,0,0,0,0,0,0,0,0,0,0,0,0,0,0,0,0,0,0,0,0,0,0,0,0,0,0,0,0,0,0,0,0,0,0,0,0,0,0,0,0,0,0,0,0,0,0,1.5635,1.5635,0,1.5641,1.5641,1.5641,1.5629,1.5629,1.5628,1.5628,1.5633,1.5633,1.5634,0,0,0,0,0,0,0,0,0,0,0,0,0,1.5608,1.5609,1.5635,1.5635,1.5635,1.5641,1.5641,1.5641,1.5629,1.5629,1.5628,1.5628,1.5632,1.5633,1.5634,0,0,0,0,0,0,0,0,0,0,0,0,0,1.5618,1.5609,1.5635,1.563,1.5629,1.5641,1.5641,1.5641,1.5629,1.5629,1.5628,1.5627,1.5632,1.5633,1.5634,1.565,0,0,1.5636,1.5636,0,0,0,0,0,0,0,0,1.5617,1.5619,1.563,1.563,1.563,1.5634,1.5633,1.5644,1.5629,1.5629,1.5628,1.5627,1.5633,1.5634,1.5636,1.565,1.565,1.5636,1.5636,1.5637,1.5637,0,0,0,0,0,0,0,1.5617,1.5618,1.5637,1.5631,1.563,1.5626,1.5626,1.5635,1.5634,1.5629,1.5628,1.5629,1.5633,1.5636,1.5636,1.565,1.5636,1.5637,1.5637,1.5637,1.5673,1.5673,0,0,0,0,0,0,1.5617,1.5618,1.5637,1.5637,1.5622,1.5627,1.5627,1.5633,1.5634,1.5634,1.563,1.5629,1.5635,1.5635,1.5636,1.5653,1.5637,1.5637,1.5638,1.5672,1.5673,1.5674,0,0,0,0,0,0,1.5617,1.5619,1.5637,1.5627,1.5629,1.5628,1.5634,1.5633,1.5636,1.5635,1.5634,1.5633,1.5634,1.5635,1.5646,1.5653,1.5638,1.5638,1.5672,1.5673,1.5673,1.5687,0,0,0,0,0,0,1.5616,1.5619,1.5626,1.5628,1.563,1.5648,1.5635,1.5634,1.5638,1.5636,1.5638,1.5637,1.5634,1.5645,1.5646,1.5653,1.5639,1.5671,1.5672,1.5673,1.5686,1.5688,1.569,0,0,0,0,0,1.5615,1.5631,1.5627,1.5629,1.564,1.5648,1.5649,1.5645,1.5638,1.5645,1.5643,1.5637,1.5652,1.5646,1.5648,1.5655,1.5671,1.5672,1.5673,1.5685,1.5688,1.569,0,0,0,0,0,0,1.5631,1.5631,1.5627,1.5644,1.5646,1.5646,1.5655,1.5649,1.5653,1.5652,1.5646,1.5646,1.5657,1.5657,1.5651,1.5668,1.566,1.5661,1.5668,1.5671,1.5673,1.5672,1.564,0,0,0,0,0,1.5636,1.5644,1.5643,1.5658,1.5659,1.5657,1.566,1.5657,1.5659,1.566,1.5659,1.566,1.5664,1.5668,1.5672,1.5686,1.5684,1.5691,1.5693,1.5695,1.5696,1.57,1.5702,1.5677,1.5677,1.5677,0,0,1.5648,1.5649,1.5654,1.5661,1.5663,1.5669,1.5658,1.5666,1.567,1.5661,1.567,1.5669,1.567,1.5681,1.5686,1.5681,1.5702,1.5697,1.5698,1.5698,1.5701,1.5704,1.5706,1.5678,1.5678,1.5678,0,0,1.5671,1.5674,1.5685,1.5686,1.5687,1.5685,1.5687,1.5687,1.5686,1.5695,1.5687,1.5691,1.57,1.57,1.5701,1.5719,1.5713,1.5721,1.5732,1.5735,1.5737,1.5739,1.5743,1.5745,1.5722,1.5722,1.5722,0,1.5685,1.5696,1.5691,1.5699,1.57,1.5691,1.5701,1.5702,1.5705,1.5705,1.57,1.5708,1.5709,1.5717,1.5722,1.5724,1.5724,1.5721,1.5737,1.5739,1.574,1.5744,1.5746,1.5723,1.5723,1.5723,1.5723,0,1.5711,1.5718,1.5726,1.5728,1.5731,1.574,1.5734,1.5737,1.5732,1.573,1.5737,1.5736,1.5738,1.574,1.5736,1.5747,1.5744,1.5738,1.5729,1.5743,1.5747,1.5749,1.5724,1.5724,1.5724,1.5723,0,0,1.5746,1.5743,1.5746,1.5745,1.5745,1.5749,1.5756,1.5758,1.5759,1.576,1.5764,1.577,1.5763,1.5764,1.5759,1.5763,1.5774,1.5756,1.5756,1.5757,1.5783,1.5786,1.5789,1.5769,1.577,1.577,1.5782,0,1.5767,1.5779,1.5774,1.5785,1.579,1.5779,1.5784,1.5784,1.578,1.5782,1.5778,1.5781,1.5774,1.5774,1.5776,1.5772,1.5779,1.5771,1.5771,1.5771,1.577,1.5791,1.5796,1.5807,1.5784,1.5784,1.5784,0,1.5795,1.5796,1.5808,1.5803,1.5804,1.5809,1.5808,1.5811,1.5809,1.5806,1.5805,1.5799,1.5802,1.5793,1.5797,1.5792,1.5791,1.5788,1.5788,1.5788,1.5778,1.5789,1.5811,1.5812,1.5787,1.5786,1.5786,0,1.5816,1.582,1.5827,1.5827,1.5823,1.5825,1.5823,1.582,1.5821,1.582,1.5819,1.5819,1.5818,1.5817,1.5809,1.5804,1.5812,1.5804,1.5808,1.5809,1.5811,1.5811,1.5831,1.5812,1.5812,1.5812,1.5812,0,1.5839,1.5846,1.5836,1.5841,1.5847,1.5839,1.5845,1.5842,1.5839,1.584,1.5832,1.5833,1.5824,1.5824,1.5818,1.582,1.582,1.5816,1.5814,1.5816,1.5817,1.5816,1.5814,1.5813,1.5812,1.5812,1.5812,0,1.5864,1.5858,1.5864,1.5859,1.5857,1.5862,1.5856,1.5858,1.5853,1.5855,1.5855,1.5847,1.5846,1.5839,1.5836,1.5832,1.5836,1.5833,1.5837,1.5835,1.584,1.5839,1.586,1.5861,1.5842,1.5843,1.5843,0,1.5879,1.5884,1.5878,1.5878,1.5876,1.5878,1.5877,1.5869,1.5868,1.5864,1.5866,1.5864,1.5863,1.5861,1.5854,1.5851,1.5848,1.5855,1.5847,1.5848,1.5845,1.5845,1.5844,1.5856,1.5857,1.5857,1.5857,0,1.5905,1.5901,1.5901,1.5899,1.5899,1.5897,1.5895,1.5895,1.5885,1.5885,1.5884,1.5882,1.5879,1.5876,1.5872,1.5868,1.586,1.5859,1.586,1.5862,1.5863,1.5861,1.584,1.5859,1.5859,1.5859,1.5859,1.5859,1.5924,1.5926,1.5922,1.5921,1.5918,1.5915,1.5916,1.5911,1.591,1.5906,1.5901,1.5899,1.5893,1.5886,1.5883,1.5881,1.5877,1.5878,1.5878,1.5878,1.5879,1.5864,1.588,1.588,1.588,1.588,1.588,0,1.5947,1.5943,1.5943,1.5939,1.5938,1.593,1.5926,1.5926,1.5925,1.592,1.5918,1.5915,1.5911,1.5903,1.5899,1.5898,1.5894,1.5897,1.5897,1.5895,1.5884,1.5883,1.59,1.59,1.59,1.59,1.59,1.59,1.5959,1.5962,1.5957,1.5957,1.5953,1.5952,1.595,1.5946,1.5942,1.5939,1.5936,1.5931,1.5924,1.5918,1.5914,1.5912,1.591,1.5913,1.591,1.5899,1.5897,1.5895,1.5894,1.5913,1.5914,1.5922,1.5922,1.5922]}]]